Location: *
(37.5724°S, 58.0067°E)
Time: 06:17:40
(UTC+00:00)

Cosmos 1933 Rocket - Pass Details

Date: 26 January 2021
Orbit: 607 x 630 km, 82.5° (Epoch: 06 March)

Event Time Altitude Azimuth Distance (km) Brightness Sun altitude
Rises 18:05:34 0° 171° (S) 2,958 7.7 -25.5°
Reaches altitude 10° 18:08:22 10° 154° (SSE) 2,040 6.5 -25.9°
Enters shadow 18:10:23 18° 129° (SE) 1,578 5.6 -26.1°
